Simultaneous Nadir Overpasses (SNOs) Predictions

Prediction of SNOs between GOES-15 and METOP-A Satellite Orbit:

Table of predicted SNOs for the next 14.0 days since TLE Epoch: 8/12/2012
Index Date Time (GOES-15) GOES-15 Lat,Lon METOP-A Lat,Lon Distance(km) Time Diff (sec)
1 08/13/2012 06:45:00 0.20,-134.84 -0.71,-138.88 460.85 80
2 08/14/2012 06:27:01 0.18,-134.80 0.37,-133.88 104.72 80
3 08/15/2012 18:43:14 -0.22,-134.83 0.61,-138.46 413.67 80
4 08/16/2012 18:25:14 -0.19,-134.80 -0.47,-133.46 151.87 80
5 08/18/2012 06:41:36 0.23,-134.66 -0.52,-138.06 388.12 80
6 08/19/2012 06:23:36 0.21,-134.62 0.56,-133.07 176.72 80
7 08/20/2012 18:39:49 -0.25,-134.63 0.42,-137.64 343.02 80
8 08/21/2012 18:21:50 -0.22,-134.59 -0.66,-132.64 221.70 80
9 08/23/2012 06:38:10 0.26,-134.44 -0.39,-137.23 319.22 80
10 08/24/2012 06:20:11 0.23,-134.39 0.69,-132.23 244.63 80
11 08/25/2012 18:36:24 -0.26,-134.38 0.29,-136.81 277.04 80




NCC Satellite Simultaneous Nadir Overpasses (SNOs) Prediction Service
